TimeMST,TemperatureF,Dew PointF,Humidity,Sea Level PressureIn,VisibilityMPH,Wind Direction,Wind SpeedMPH,Gust SpeedMPH,PrecipitationIn,Events,Conditions,WindDirDegrees,DateUTC
12:53 AM,32.0,19.0,59,30.03,10.0,Calm,Calm,-,N/A,,Clear,0,2012-11-26 07:53:00
1:53 AM,34.0,21.0,59,30.03,10.0,ENE,4.6,-,N/A,,Clear,70,2012-11-26 08:53:00
2:53 AM,32.0,19.9,61,30.06,10.0,East,4.6,-,N/A,,Clear,100,2012-11-26 09:53:00
3:53 AM,32.0,21.0,64,30.07,10.0,East,4.6,-,N/A,,Clear,80,2012-11-26 10:53:00
4:53 AM,30.0,19.0,64,30.10,10.0,Calm,Calm,-,N/A,,Clear,0,2012-11-26 11:53:00
5:53 AM,28.0,19.9,72,30.16,10.0,East,5.8,-,N/A,,Clear,80,2012-11-26 12:53:00
6:53 AM,27.0,18.0,69,30.19,10.0,SE,3.5,-,N/A,,Clear,140,2012-11-26 13:53:00
7:53 AM,25.0,17.1,72,30.24,10.0,Calm,Calm,-,N/A,,Clear,0,2012-11-26 14:53:00
8:53 AM,34.0,19.9,56,30.23,10.0,Calm,Calm,-,N/A,,Clear,0,2012-11-26 15:53:00
9:53 AM,39.0,21.9,50,30.23,10.0,SSE,4.6,-,N/A,,Clear,160,2012-11-26 16:53:00
10:53 AM,45.0,21.9,40,30.22,10.0,Calm,Calm,-,N/A,,Clear,0,2012-11-26 17:53:00
11:53 AM,48.9,21.9,35,30.19,10.0,SW,8.1,-,N/A,,Clear,230,2012-11-26 18:53:00
12:53 PM,51.1,21.0,31,30.17,10.0,Calm,Calm,-,N/A,,Clear,0,2012-11-26 19:53:00
1:53 PM,52.0,21.0,30,30.15,10.0,NW,5.8,-,N/A,,Clear,310,2012-11-26 20:53:00
2:53 PM,52.0,19.9,28,30.16,10.0,WNW,3.5,-,N/A,,Clear,290,2012-11-26 21:53:00
3:53 PM,51.1,17.1,26,30.16,10.0,WNW,3.5,-,N/A,,Clear,290,2012-11-26 22:53:00
4:53 PM,48.0,18.0,30,30.19,10.0,Calm,Calm,-,N/A,,Clear,0,2012-11-26 23:53:00
5:53 PM,39.0,15.1,38,30.24,10.0,Calm,Calm,-,N/A,,Clear,0,2012-11-27 00:53:00
6:53 PM,34.0,14.0,44,30.28,10.0,East,3.5,-,N/A,,Clear,100,2012-11-27 01:53:00
7:53 PM,34.0,14.0,44,30.30,10.0,East,4.6,-,N/A,,Clear,80,2012-11-27 02:53:00
8:53 PM,34.0,16.0,48,30.30,10.0,East,5.8,-,N/A,,Clear,80,2012-11-27 03:53:00
9:53 PM,32.0,15.1,50,30.30,10.0,East,8.1,-,N/A,,Clear,80,2012-11-27 04:53:00
10:53 PM,34.0,17.1,50,30.29,10.0,East,10.4,-,N/A,,Clear,100,2012-11-27 05:53:00
11:53 PM,34.0,17.1,50,30.28,10.0,ESE,11.5,-,N/A,,Clear,110,2012-11-27 06:53:00